Location: Newsoms
(36.6240°N, 77.1250°W)
Time: 20:18:40
(UTC-04:00)

Daily predictions for brighter satellites

Satellite Brightness Start Highest point End
(mag) Time Altitude Azimuth Time Altitude Azimuth Time Altitude Azimuth
CENTAUR R/B 3.5 20:40:55 10° NNW 20:48:33 51° NE 20:56:34 10° SE
Cosmos 2278 Rocket 4.0 20:48:13 10° ESE 20:49:21 11° E 20:50:30 10° E
Cosmos 1943 3.8 20:47:49 10° NNW 20:53:20 59° WSW 20:58:50 10° S
Cosmos 1709 Rocket 4.3 20:48:31 10° SSW 20:54:36 72° W 21:00:47 10° N
Cosmos 1356 Rocket 3.9 20:51:01 10° SSE 20:54:58 42° E 20:59:00 10° NNE
USA 186 1.6 20:52:04 10° S 20:55:02 88° WSW 20:58:13 10° NNW
NOSS 2-2 (D) 3.6 20:54:07 10° SSW 20:58:01 50° ESE 21:02:22 10° NE
Cosmos 1844 Rocket 3.4 20:55:07 10° SSE 21:00:02 32° ESE 21:04:58 10° NE
Cosmos 2074 Rocket 4.2 20:55:47 10° SSE 21:01:52 55° E 21:07:58 10° NNE
Meteor 2-3 Rocket 3.7 20:57:48 10° S 21:03:26 89° ESE 21:09:04 10° N
Cosmos 1825 4.3 21:03:39 10° E 21:04:10 10° E 21:04:39 10° ENE
CZ-2D R/B 4.1 21:00:58 10° S 21:04:40 52° W 21:08:25 10° NNW
SL-27 R/B 4.2 21:04:02 10° NNE 21:06:44 19° ENE 21:08:58 12° ESE
H-2A R/B 3.0 21:04:04 10° SE 21:07:53 31° ENE 21:11:39 10° N
CZ-3A R/B 4.4 20:40:36 10° W 21:09:53 39° SSW 21:14:43 12° SE
NOSS 2-2 (C) 3.4 21:08:39 10° SSW 21:12:40 75° ESE 21:17:11 10° NE
Cosmos 2263 Rocket 3.9 21:10:00 10° SW 21:15:13 37° WNW 21:20:27 10° N
FENGYUN 3A 4.4 21:10:16 10° S 21:15:32 54° W 21:20:50 10° NNW
Cosmos 1340 Rocket 3.3 21:12:20 10° SSW 21:16:16 65° W 21:20:16 10° N
Cosmos 1408 4.4 21:18:10 14° ESE 21:18:58 15° E 21:21:06 10° NE
Resurs 01 Rocket 4.5 21:17:06 10° WSW 21:19:20 14° W 21:21:33 10° WNW
Cosmos 1624 Rocket 4.0 21:15:37 10° SSW 21:20:51 79° ESE 21:26:10 10° NNE
Envisat 3.3 21:16:53 12° SE 21:21:26 49° ENE 21:26:19 10° N
Cosmos 1939 Rocket 2.9 21:20:38 13° SSE 21:23:53 56° ENE 21:27:43 10° N
BREEZE-M DEB (TANK) 2.0 21:22:49 10° NW 21:24:50 67° NE 21:26:55 19° ESE
Atlas Centaur 2 2.0 21:21:43 10° WSW 21:24:51 30° S 21:26:36 20° SE
Cosmos 1782 3.3 21:21:51 10° N 21:25:41 41° E 21:28:19 18° SE
H-2A R/B 4.3 21:26:41 10° ENE 21:27:30 10° ENE 21:28:20 10° NE
Okean 1-7 4.5 21:24:02 10° NNW 21:28:00 37° W 21:31:58 10° SSW
SJ-11-01 4.3 21:23:53 10° SSE 21:28:37 87° WSW 21:33:24 10° NNW
Cosmos 1238 Rocket 4.3 21:29:04 10° NE 21:31:07 16° E 21:31:26 15° E
Sich 1 Rocket 3.9 21:26:45 10° SSE 21:31:08 49° E 21:35:34 10° NNE
NOSS 2-2 (E) 4.1 21:27:36 10° SW 21:31:40 62° NW 21:36:20 10° NNE
SPOT 5 3.5 21:28:51 17° SE 21:32:36 46° ENE 21:37:41 10° N
ALOS 4.1 21:29:10 10° SSW 21:33:13 29° W 21:37:17 10° NW
Meteor 2-10 Rocket 3.8 21:29:19 10° N 21:35:10 83° W 21:40:50 10° S
PSLV R/B 4.3 21:34:51 23° E 21:35:26 24° ENE 21:37:55 10° NNE
ERBS 2.8 21:33:23 10° NNW 21:36:47 50° NE 21:38:24 26° ESE
Cosmos 1674 Rocket 3.6 21:34:20 10° N 21:38:47 65° E 21:41:52 19° SSE
Cosmos 1606 3.5 21:36:17 10° NNE 21:39:54 35° E 21:41:22 26° ESE
Cosmos 407 Rocket 3.9 21:36:57 10° N 21:42:03 48° ENE 21:45:03 23° SE
Terra 4.0 21:43:02 10° ENE 21:43:44 10° ENE 21:44:26 10° NE
Cosmos 1892 4.0 21:41:00 10° SSW 21:44:36 41° W 21:48:16 10° N
Cosmos 1452 Rocket 3.7 21:39:44 10° S 21:44:45 48° ESE 21:49:49 10° NNE
ERS-1 Rocket 3.5 21:42:34 10° S 21:47:30 58° WSW 21:52:29 10° NNW
Cosmos 1782 Rocket 4.3 21:47:17 27° SE 21:48:42 33° E 21:52:43 10° NNE
GPS 2-05 Rocket1 3.7 21:49:43 10° SW 21:52:52 32° SSE 21:52:52 32° SSE
Cosmos 1190 Rocket 3.9 21:48:29 10° NNW 21:53:41 78° ENE 21:56:41 26° SSE
PSLV R/B 3.3 21:54:14 10° WNW 21:57:42 75° NNE 21:58:46 42° E
Meteor 2-6 Rocket 4.3 21:52:37 10° N 21:58:36 85° W 22:03:01 18° S
Coronas F rocket 4.4 21:59:11 10° WSW 22:00:50 15° WNW 22:02:30 10° NW
Abrixas rocket 3.7 22:00:25 10° WNW 22:03:22 27° SW 22:04:01 25° SSW
Okean 3 3.9 22:01:19 10° N 22:05:27 45° E 22:06:18 39° ESE
Cosmos 2154 Rocket 3.9 21:59:18 10° S 22:05:33 87° E 22:11:47 10° N
USA 234 3.4 22:00:45 10° NE 22:07:03 49° SE 22:13:18 10° SSW
Cosmos 1975 Rocket 3.6 22:03:01 10° N 22:07:05 39° E 22:07:45 36° ESE
Intercosmos 25 3.9 22:07:21 35° E 22:07:21 35° E 22:10:11 10° NNE
MetOp-B 4.1 22:07:40 29° SSE 22:10:33 86° ENE 22:15:56 10° NNW
CZ-4B R/B 3.3 22:06:58 10° NNE 22:11:54 63° ESE 22:14:00 33° S
Cosmos 1908 Rocket 3.8 22:10:37 17° SSW 22:13:53 68° W 22:18:18 10° N
COSMOS 2406 3.9 22:11:19 10° NNW 22:16:51 50° WSW 22:20:21 22° S
USA 245 2.9 22:19:19 59° NE 22:19:19 59° NE 22:22:27 10° N
SL-08 RB Rocket 4.0 22:18:58 43° ESE 22:19:49 49° ENE 22:24:16 10° N
ARGOS 3.2 22:19:51 40° SE 22:21:41 65° ENE 22:26:59 10° N
Cosmos 1378 Rocket 3.5 22:18:48 10° N 22:23:07 81° W 22:24:19 47° S
Cosmos 676 Rocket 3.9 22:18:25 10° NNW 22:23:38 87° ENE 22:25:21 44° SSE
Cosmos 1295 Rocket 4.5 22:21:05 31° SSE 22:24:16 68° E 22:30:30 10° NNE
Cosmos 1184 Rocket 2.8 22:24:37 79° NNW 22:24:37 79° NNW 22:27:48 10° N
ATLAS 5 CENTAUR R/B 3.0 22:19:44 10° NW 22:25:40 51° WSW 22:28:52 28° S
CZ-3C R/B 3.8 22:13:11 10° WSW 22:29:04 24° SSW 22:30:50 22° S
CZ-4 R/B 3.6 22:24:43 10° NNE 22:29:23 69° ESE 22:30:17 54° SSE
Cosmos 1174 3.9 22:27:08 10° NNW 22:29:36 47° N 22:29:36 47° N
Cosmos 1954 Rocket 3.9 22:25:24 10° NNW 22:30:37 77° ENE 22:31:54 52° SE
Cosmos 1862 4.2 22:28:46 23° SW 22:30:57 47° W 22:34:55 10° N
Cosmos 2278 Rocket 2.2 22:27:11 11° SSW 22:32:35 84° WNW 22:38:18 10° NNE
Cosmos 489 Rocket 4.5 22:29:40 10° NNW 22:35:51 67° ENE 22:37:37 46° SE
Cosmos 2366 rocket 4.2 22:36:39 44° SE 22:37:56 50° E 22:44:00 10° NNE
CENTAUR R/B 4.1 22:31:57 10° NW 22:39:12 38° WSW 22:44:20 19° SSW
Cosmos 1825 3.3 22:37:57 29° SW 22:39:19 40° W 22:42:57 10° N
Cosmos 1833 Rocket 4.1 22:35:27 10° N 22:39:53 23° ENE 22:40:56 22° ENE
Cosmos 2084 3.7 22:37:52 20° SW 22:40:22 56° NW 22:44:09 10° NNE
Cosmos 1844 Rocket 4.4 22:38:49 10° WSW 22:43:50 32° WNW 22:48:52 10° N
H-2A R/B 4.3 22:41:12 12° SW 22:43:53 19° W 22:47:01 10° NW
COSMOS 2487 3.0 22:41:50 10° NNW 22:44:48 57° NNW 22:44:48 57° NNW
APEX 3.9 22:50:10 49° NE 22:50:10 49° NE 22:53:44 10° NNE
CZ-4C R/B 3.8 22:51:49 53° NNE 22:51:49 53° NNE 22:55:01 10° N
YAOGAN 6 4.3 22:52:00 25° WSW 22:52:12 26° W 22:55:11 10° NW
Cosmos 2082 Rocket 2.9 22:49:30 10° N 22:54:49 38° ENE 22:55:25 37° ENE
Cosmos 2218 Rocket 4.0 22:59:14 49° S 23:01:10 89° W 23:07:37 10° N
Cosmos 2297 3.6 23:02:58 61° SSW 23:04:02 89° ESE 23:09:48 10° NNE
Okean 2 Rocket 4.3 23:02:50 31° WSW 23:04:05 38° W 23:08:13 10° N
Landsat 7 3.8 23:05:01 78° WSW 23:05:01 78° WSW 23:09:48 10° NNW
Cosmos 1023 Rocket 4.4 23:00:15 10° NNW 23:05:21 76° WSW 23:05:34 74° SW
H-2A R/B 2.0 23:05:41 77° SSE 23:06:05 86° ENE 23:11:29 10° NNW
DELTA 2 DEB (DPAF) 4.4 23:09:30 67° WNW 23:09:30 67° WNW 23:13:38 10° NNW
Cosmos 1242 Rocket 4.1 23:08:07 10° NNW 23:10:42 34° WNW 23:10:42 34° WNW
Terra 2.0 23:21:18 68° NW 23:21:18 68° NW 23:25:33 10° NNW
Spot 4 4.1 23:21:25 66° NNE 23:21:25 66° NNE 23:25:40 10° N
Cosmos 1727 Rocket 3.8 23:15:04 10° N 23:21:16 85° E 23:21:45 77° SSE
IGS 5A 4.4 23:25:17 46° NNW 23:25:17 46° NNW 23:28:17 10° NNW
ASTEX 1 3.9 23:21:53 10° N 23:25:46 53° NNE 23:25:46 53° NNE
Timation 2 Rocket 4.0 23:29:03 10° NNW 23:34:54 59° WSW 23:35:01 59° WSW
Cosmos 614 Rocket 4.4 23:30:03 10° NNW 23:34:27 56° WNW 23:34:27 56° WNW
Cosmos 2369 Rocket 4.3 23:46:17 15° ENE 23:46:17 15° ENE 23:47:39 10° NE
Meteor 1-20 Rocket 4.3 23:43:42 69° WNW 23:43:42 69° WNW 23:49:04 10° N
USA 234 4.2 23:43:48 10° NNE 23:49:57 45° NW 23:56:04 10° WSW
